Location: Chippewa Lake
(41.0698°N, 81.9010°W)
Time: 02:12:31
(UTC+00:00)

Cosmos 1151 Rocket - Pass Details

Date: 09 May 2021
Orbit: 591 x 616 km, 82.5° (Epoch: 24 June)

Event Time Altitude Azimuth Distance (km) Brightness Sun altitude
Exits shadow 01:48:24 20° 131° (SE) 1,404 4.2 -13.1°
Maximum altitude 01:50:20 29° 90° (E) 1,134 4.0 -13.4°
Drops below altitude 10° 01:54:07 10° 30° (NNE) 1,981 5.8 -14.0°
Sets 01:56:34 0° 20° (NNE) 2,893 6.8 -14.3°
